Showing default

COSMOS 2291, 23267

Orbit data source: Space-Track

COSMOS 2291, 23267 is a payload satellite owned by VKS (CIS) in GEO that was launched on Wed, 21 Sep 1994 UTC via a PROTON-K/DM-2 launch vehicle from the Tyuratam Missile And Space Complex (TTMTR). Payload-class satellites include a variety of spacecraft equipped with specific instruments for various scientific and technological missions. These include communications satellites like Starlink; space stations such as the ISS; scientific satellites like the Hubble; Earth observation satellites from companies like Planet Labs, Umbra, and HawkEye 360; GPS; miniature CubeSats for education and research; and military/defense satellites.

Not visible in the next 10 days
Identifier
23267, 1994-060A
Orbit
GEO
Country
Flag of CISCIS
Related business
Manufacturer
NPO PM
Mission
Defense Communications
Bus & Motor
GEIZER, Unknown motor
Mass
2,100 kg wet, ~1,900 kg dry
Launch date (UTC)
1994-09-21 (31 years ago)
Launch vehicle
PROTON-K/DM-2
Launch site
Tyuratam Missile And Space Complex (TTMTR)
Object type
Payload
Rocket body
Debris
Shape & HBR
Hex Poly + 2 Pan, 4.5 m
Radar Cross Section
17.360 m², Large (>1 m²)

Expand to show TLE details & history
Last TLE update: 8 hours ago

TLE from 8 hours ago
0 COSMOS 2291
1 23267U 94060A   26062.05808873 -.00000126  00000-0  00000+0 0  9993
2 23267  14.1858 350.4262 0006660 240.9312 298.6341  1.00279392115137
Epoch: 2026-03-03T01:23Z
TLE epoch observation values (Epoch: 2026-03-03T01:23:38.866Z)
Latitude
0.12323°
Longitude
-11.78261°
Altitude
35,770.516 km
Speed
3.076 km/s
True Right ascension
11h 19m 53s
True Declination
0° 07' 23"
Sunlit
Object was in daylight at epoch
Visualization orbit readout
Latitude
Unknown
Longitude
Unknown
Altitude
Unknown
Speed
Unknown
Apparent Right ascension
Unknown
Apparent Declination
Unknown
Sunlit
N/A
Visualization observer readout
Local Sidereal Time
13:36:58
Azimuth
Unknown
Elevation
Unknown
Doppler factor
Unknown
Orbital elements
Apogee altitude
35,813.52 km
Perigee altitude
35,757.358 km
Semi-major axis
42,163.576 km
Eccentricity
0.00067
Inclination
14.1858°
RAAN
350.4262°
Arg. of periapsis
240.9312°
True anomaly
298.56709°
Mean anomaly
298.6341°
Eccentric anomaly
298.6006°
Mean motion
0.25069 °/min
Orbital period
1,436.04 mins
BSTAR
0
Loading maneuver chart data...
Computing Atmospheric mass density...
Loading historical data...
Loading historical data...
Loading historical data...
Loading historical data...
Loading historical data...
Loading historical data...
Loading historical data...

Documentation

Showing up to 5 results
|